Regional Weather Roundup
Issued by NWS Grand Forks, ND

Home | Current Version | Previous Version | Text Only | Print | Product List | Glossary On
Versions: 1 2 3 4 5 6 7 8 9 10 11 12 13 14 15 16 17 18 19 20 21 22 23 24 25 26 27 28 29 30 31 32 33 34 35 36 37 38 39 40 41 42 43 44 45 46 47 48 49 50
000
ASUS43 KFGF 300031
RWRFGF
PRAIRIE TO PINES  WEATHER ROUNDUP
NATIONAL WEATHER SERVICE EASTERN NORTH DAKOTA/GRAND FORKS ND
700 PM CDT SUN MAR 29 2015

 **SATELLITE DATA USED TO AUGMENT SKY COVER AT AUTOMATED STATIONS**
 *****  WEATHER ACROSS EASTERN NORTH DAKOTA  *****

CITY           SKY/WX    TMP DP  RH WIND       PRES   REMARKS
GRAND FORKS    MOCLDY    52  28  39 W10       29.88S
6HR MIN TEMP:  50; 6HR MAX TEMP:  56;

GRAND FRKS AFB DRIZZLE   52  30  43 NW17      29.89R
GRAND FRKS NWS   N/A     48 N/A N/A NW5         N/A
DEVILS LAKE    PTCLDY    52  30  43 NW13      29.89S
6HR MIN TEMP:  50; 6HR MAX TEMP:  55;

FARGO          CLOUDY    54  26  34 NW17      29.91S
WAHPETON ARPT  MOCLDY    50  27  40 NW9       29.94S
$$

 ***** WEATHER ACROSS CENTRAL AND WESTERN NORTH DAKOTA  *****

CITY           SKY/WX    TMP DP  RH WIND       PRES   REMARKS
BISMARCK       SUNNY     59  28  30 NW20G29   29.97S
6HR MIN TEMP:  54; 6HR MAX TEMP:  60;

MINOT          MOSUNNY   55  30  38 NW12      29.92S
6HR MIN TEMP:  53; 6HR MAX TEMP:  59;

JAMESTOWN      CLEAR     53  27  36 W13       29.93S
6HR MIN TEMP:  51; 6HR MAX TEMP:  58;

MINOT AFB      SUNNY     55  34  44 NW14      29.91S
GARRISON         N/A     57  32  38 NW17      29.94F
WILLISTON      MOSUNNY   59  33  37 W13G22    29.93F
6HR MIN TEMP:  52; 6HR MAX TEMP:  62;

DICKINSON      SUNNY     56  27  32 W12       29.96F
6HR MIN TEMP:  51; 6HR MAX TEMP:  61;

HETTINGER      MOSUNNY   58  28  32 W17       30.01F
6HR MIN TEMP:  52; 6HR MAX TEMP:  62;

$$

 *****  OTHER AIRPORT OBSERVATIONS IN OUR AREA  *****

CITY           SKY/WX    TMP DP  RH WIND       PRES   REMARKS
WALHALLA         N/A     48  32  53 NW10G16   29.87S
GRAFTON AIRPOR NOT AVBL
VALLEY CITY AR FAIR      50  27  40 NW10      29.93S
CANDO          FAIR      46  32  57 NW8       29.90S
CAVALIER APRT  FAIR      48  30  49 NW9       29.87R
GWINNER        PTCLDY    54  30  40 W16         N/A
SHEYENNE NWR     N/A     56  24  29 NW8       29.95S
ROLLA          MOCLDY    46  34  61 NW10G22   29.91R
 ***** THE ABOVE OBSERVATIONS ARE NON NWS ARE NOT QUALITY
       CONTROLLED AND MAY MIS-REPORT RAIN FOR SNOW...
$$

  *****  WEATHER ACROSS NORTHERN MINNESOTA  *****

CITY           SKY/WX    TMP DP  RH WIND       PRES   REMARKS
FLAG ISLAND    PTCLDY    43  27  52 NW10      29.78S
WARROAD        PTCLDY    46  28  49 W10G17    29.82R
ROSEAU         CLEAR     46  30  53 NW10      29.82S
HALLOCK        PTCLDY    46  34  61 NW8       29.85S
THF RVR FALLS  PTCLDY    46  30  53 NW9       29.87S
6HR MIN TEMP:  43; 6HR MAX TEMP:  48;

BAUDETTE       PTCLDY    45  27  49 NW9       29.79R
6HR MIN TEMP:  37; 6HR MAX TEMP:  46;

WASKISH        PTCLDY    43  30  61 CALM      29.82S
CROOKSTON      PTCLDY    48  27  43 NW13      29.89R
STEPHEN NDAWN    N/A     52  34  50 NW12        N/A
GREENBUSH NDAW   N/A     46  34  61 NW12        N/A
$$
  *****  WEATHER ACROSS CENTRAL AND WEST MINNESOTA  *****

CITY           SKY/WX    TMP DP  RH WIND       PRES   REMARKS
FOSSTON        PTCLDY    46  28  49 CALM      29.89S
BEMIDJI        PTCLDY    44  26  49 NW16G22   29.85S
PARK RAPIDS    CLEAR     47  22  37 NW20G31   29.87R
6HR MIN TEMP:  45; 6HR MAX TEMP:  53;

ELBOW LAKE     FAIR      48  28  45 NW12      29.93R
6HR MIN TEMP:  45; 6HR MAX TEMP:  51;

WADENA         PTCLDY    46  27  46 NW14G23   29.90R
DETROIT LAKES  PTCLDY    45  32  61 NW8       29.91S
MOORHEAD       MOCLDY    54  23  30 NW15      29.92S
FERGUS FALLS   MOCLDY    48  27  43 NW10G16   29.94S
MORRIS MN      PTCLDY    52  27  37 NW15      29.94R
STAPLES        MOCLDY    46  19  34 NW23G31   29.89R
$$
  *****  WEATHER ELSEWHERE ACROSS MINNESOTA  *****

CITY           SKY/WX    TMP DP  RH WIND       PRES   REMARKS
DULUTH         PTCLDY    44  25  47 NW18G28   29.74R
6HR MIN TEMP:  38; 6HR MAX TEMP:  44; 6HR PCP:  0.01;

INTRNTL FALLS  PTCLDY    43  26  51 NW12      29.77R
6HR MIN TEMP:  37; 6HR MAX TEMP:  45; 6HR PCP: TRACE;

ELY            MOCLDY    37  27  65 NW12      29.73R
CLOQUET        PTCLDY    45  23  42 W15       29.77R
WHEATON        PTCLDY    48  25  40 W10       29.97S
BRAINERD       PTCLDY    48  24  39 NW23G31   29.85R
6HR MIN TEMP:  44; 6HR MAX TEMP:  51;

HIBBING        MOCLDY    42  25  50 NW22G31   29.77R
6HR MIN TEMP:  36; 6HR MAX TEMP:  45; 6HR PCP: TRACE;

ALEXANDRIA     PTCLDY    49  24  37 NW20G30   29.92R
6HR MIN TEMP:  45; 6HR MAX TEMP:  51;

SAINT CLOUD    PTCLDY    50  27  40 NW14G25   29.87R
6HR MIN TEMP:  45; 6HR MAX TEMP:  52;

MINNEAPOLIS    PTCLDY    50  26  39 NW22G32   29.86R
6HR MIN TEMP:  40; 6HR MAX TEMP:  53; 6HR PCP: TRACE;

$$

  *****  WEATHER ACROSS SOUTH DAKOTA  *****

CITY           SKY/WX    TMP DP  RH WIND       PRES   REMARKS
SIOUX FALLS    CLEAR     56  19  23 NW16      30.02R
6HR MIN TEMP:  54; 6HR MAX TEMP:  60;

BROOKINGS      NOT AVBL
WATERTOWN      CLEAR     52  25  35 NW14      29.99S
6HR MIN TEMP:  50; 6HR MAX TEMP:  56;

HURON          CLEAR     58  19  22 NW15      30.02S
6HR MIN TEMP:  55; 6HR MAX TEMP:  61;

SISSETON         N/A     54  27  35 NW14      29.95S
ABERDEEN       CLEAR     58  22  24 NW14      30.00F
6HR MIN TEMP:  56; 6HR MAX TEMP:  60;

MITCHELL       CLEAR     59  19  21 NW15      30.05R
PIERRE         SUNNY     61  27  27 NW10      30.02F
6HR MIN TEMP:  54; 6HR MAX TEMP:  62;

MOBRIDGE       SUNNY     61  31  32 NW13      29.97F
RAPID CITY     CLOUDY    60  26  27 N6        30.06F
6HR MIN TEMP:  57; 6HR MAX TEMP:  65;

$$

  *****  SOME WEATHER IN NEARBY STATES *****

CITY           SKY/WX    TMP DP  RH WIND       PRES   REMARKS
GLASGOW MT     PTSUNNY   62  31  31 W18       29.92F
6HR MIN TEMP:  55; 6HR MAX TEMP:  63;

GREAT FALLS MT PTSUNNY   57  27  31 SW18G24   30.01S
6HR MIN TEMP:  50; 6HR MAX TEMP:  60;

CHEYENNE WY    MOSUNNY   59  19  21 S15G23    30.16S
6HR MIN TEMP:  53; 6HR MAX TEMP:  62;

SCOTTSBLUFF NE MOSUNNY   65  22  19 E3        30.10F
6HR MIN TEMP:  59; 6HR MAX TEMP:  66;

OMAHA NE       PTCLDY    60  22  23 NW17      30.05R
6HR MIN TEMP:  52; 6HR MAX TEMP:  63;

DES MOINES IA  CLEAR     60  19  20 NW17G26   29.98R
6HR MIN TEMP:  55; 6HR MAX TEMP:  63;

DAVENPORT IA   CLEAR     52  37  56 NW15G25   29.88R
6HR MIN TEMP:  44; 6HR MAX TEMP:  56;

CHICAGO IL     LGT RAIN  47  35  63 SW14G24   29.75R
6HR MIN TEMP:  34; 6HR MAX TEMP:  47; 6HR PCP: TRACE;

EAU CLAIRE WI  CLEAR     48  28  46 NW15G23   29.77R
6HR MIN TEMP:  39; 6HR MAX TEMP:  49; 6HR PCP:  0.04;

LA CROSSE WI   PTCLDY    52  29  41 NW24      29.78R
6HR MIN TEMP:  44; 6HR MAX TEMP:  53; 6HR PCP: TRACE;

$$

  *****  SOME NATIONAL WEATHER *****

CITY           SKY/WX    TMP DP  RH WIND       PRES   REMARKS
LA GUARDIA NY  PTCLDY    40  18  41 S14       30.16S
6HR MIN TEMP:  40; 6HR MAX TEMP:  46;

RALEIGH NC     PTCLDY    46  14  27 S5        30.28F
6HR MIN TEMP:  44; 6HR MAX TEMP:  52;

ATLANTA GA     MOCLDY    59  24  26 S7        30.23F
6HR MIN TEMP:  54; 6HR MAX TEMP:  62;

NEW ORLEANS LA PTCLDY    71  61  70 S12       30.19S
6HR MIN TEMP:  71; 6HR MAX TEMP:  77;

OKLAHOMA CITY  PTCLDY    73  39  29 NE9       30.07R
6HR MIN TEMP:  71; 6HR MAX TEMP:  78;

ALBUQUERQUE NM PTSUNNY   76  16  10 SE7       30.13S
6HR MIN TEMP:  69; 6HR MAX TEMP:  80;

SALT LAKE CITY MOSUNNY   64  12  13 NW13      30.20S
6HR MIN TEMP:  57; 6HR MAX TEMP:  66;



USA.gov is the U.S. government's official web portal to all federal, state and local government web resources and services.